Regional Weather Roundup
Issued by NWS Sterling, VA

Home | Current Version | Previous Version | Text Only | Print | Product List | Glossary On
Versions: 1 2 3 4 5 6 7 8 9 10 11 12 13 14 15 16 17 18 19 20 21 22 23 24 25 26 27 28 29 30 31 32 33 34 35 36 37 38 39 40 41 42 43 44 45 46 47 48 49 50
545
ASUS41 KLWX 081710
RWRLWX

REGIONAL WEATHER ROUNDUP
NATIONAL WEATHER SERVICE BALTIMORE MD/WASHINGTON DC
1200 PM EST MON FEB 08 2016

Note: "FAIR" indicates few or no clouds below 12,000 feet
with no significant weather and/or obstructions to visibility.
 TC=TEMPERATURE CELSIUS

 * =Non NWS site. Station does not report precipitation (e.g. rain,
    snow, etc.), thunder, or fog.

DCZ001-MDZ009-015-VAZ040>042-051-053>054-081800-
WASHINGTON METRO

CITY           SKY/WX    TMP DP  RH WIND       PRES   REMARKS
WASHINGTON NAT PTSUNNY   44  28  53 CALM      29.76F
DULLES         PTSUNNY   45  26  47 VRB6      29.74F
ANDREWS AFB    MOSUNNY   42  29  58 VRB2      29.73F
FT BELVOIR     FAIR      45  27  49 SE8       29.74F
QUANTICO       FAIR      44  26  49 S3        29.77F
COLLEGE PARK*  PTSUNNY   45  30  57 CALM      29.76F
LEESBURG*      FAIR      45  28  53 CALM      29.75F
MANASSAS*      SUNNY     45  27  49 SE3       29.76F
GAITHERSBURG*  MOSUNNY   43  25  49 E7        29.76F

$$

MDZ006>007-011-014-081800-
BALTIMORE METRO

CITY           SKY/WX    TMP DP  RH WIND       PRES   REMARKS
BWI AIRPORT    PTSUNNY   42  28  57 E7        29.75F
MD SCIENCE CTR   N/A     45  28  51 MISG      29.77F
MARTIN STATE   MOSUNNY   46  32  57 NE8       29.77F
ANNAPOLIS      SUNNY     42  28  57 NW6       29.76F
FORT MEADE*    PTSUNNY   41  28  60 SE5       29.78F

$$

MDZ012-015-019>023-081800-
MARYLAND EASTERN SHORE

CITY           SKY/WX    TMP DP  RH WIND       PRES   REMARKS
OCEAN CITY     CLOUDY    43  34  70 NE13G24   29.74S
SALISBURY      CLOUDY    42  32  67 NE7       29.74F
BAY BRIDGE AP*   N/A     43  28  56 CALM      29.76F
CAMBRIDGE*     MOSUNNY   43  30  61 NE3       29.74F
EASTON*        MOSUNNY   45  30  57 E12       29.79F

$$

MDZ017>025-081800-
SOUTHERN MARYLAND

CITY           SKY/WX    TMP DP  RH WIND       PRES   REMARKS
PATUXENT RIVER MOSUNNY   44  29  55 VRB3      29.76F
ST INIGOES     MOSUNNY   45  31  58 N5        29.76F
LEONARDTOWN*   MOSUNNY   43  28  56 CALM      29.77F

$$

MDZ003>005-081800-
NORTH CENTRAL MARYLAND

CITY           SKY/WX    TMP DP  RH WIND       PRES   REMARKS
FREDERICK*     SUNNY     43  28  56 CALM      29.76F
HAGERSTOWN APT SUNNY     39  24  55 NW6       29.73F
WESTMINSTER*   MOSUNNY   43  34  70 S6        29.73F

$$

MDZ501>502-081800-
WESTERN MARYLAND

CITY           SKY/WX    TMP DP  RH WIND       PRES   REMARKS
OAKLAND*       PTSUNNY   34  23  64 SE8G16    29.60F WCI  27
CUMBERLAND*    PTSUNNY   41  25  52 CALM      29.74F

$$

VAZ025>031-081800-
SHENANDOAH VALLEY

CITY           SKY/WX    TMP DP  RH WIND       PRES   REMARKS
WINCHESTER*    FAIR      43  25  49 S3        29.72F
FRONT ROYAL*   FAIR      43  25  49 N5        29.71F
LURAY*         FAIR      43  25  49 CALM      29.71F
NEW MARKET*    FAIR      42  26  53 CALM      29.70F
STAUNTON*      FAIR      46  28  49 SE5       29.73
WAYNESBORO*    FAIR      41  21  44 SE12G17   29.70F

$$

WVZ021-048>050-054>055-081800-
EASTERN WEST VIRGINIA PANHANDLE

CITY           SKY/WX    TMP DP  RH WIND       PRES   REMARKS
MARTINSBURG    FAIR      41  22  46 S3        29.74F
PETERSBURG*    PTSUNNY   42  28  58 CALM      29.68F

$$

VAZ036>039-050-081800-
CENTRAL FOOTHILLS

CITY           SKY/WX    TMP DP  RH WIND       PRES   REMARKS
CHARLOTTESVILL FAIR      44  21  40 CALM      29.74F
CULPEPER*      FAIR      42  23  47 S3        29.76F
ORANGE*        FAIR      45  23  42 CALM      29.76F
GORDONSVILLE*  FAIR      44  21  40 CALM      29.73F
WARRENTON*     FAIR      46  28  50 CALM      29.74F

$$

VAZ055>057-081800-
NORTH AND CENTRAL PIEDMONT

CITY           SKY/WX    TMP DP  RH WIND       PRES   REMARKS
FREDERICKSBRG* FAIR      44  26  49 CALM      29.75F
STAFFORD*      FAIR      45  27  49 SE7       29.79F

$$

NCZ024-NYZ072-PAZ021-071-VAZ022-071-081800-
OTHER REGIONAL OBSERVATIONS

CITY           SKY/WX    TMP DP  RH WIND       PRES   REMARKS
NEW YORK CITY  LGT SNOW  31  25  78 N9G18     29.80F VSB 1   WCI  23
PHILADELPHIA   CLOUDY    44  27  51 NE10      29.75F
PITTSBURGH     CLOUDY    42  24  49 S7        29.60F
ROANOKE        CLOUDY    40  27  59 VRB3      29.73F
RICHMOND       PTSUNNY   45  27  49 CALM      29.75F
RALEIGH        PTSUNNY   51  28  41 CALM      29.77F

$$

ANZ530>537-081800-
MARINE OBSERVATIONS

STATION/POSITION TIME  TEMP    WIND        PRES
                       AIR SEA DIR/SP/G
                 (UTC) (F)     (DEG/KT/KT) (MB)
THOMAS PT LIGHT  1700   39 38  340/  7/  7 1008.4
BALT KEY BRIDGE  1600   40      50/  5/  7 1008.4F
COVE POINT       1600   38     360/ 12/ 13 1008.8F
LEWISETTA        1600   41 41  330/  4/  6 1008.1S
SOLOMONS ISLAND  1600   41 41   20/  5/  9   N/A

$$





USA.gov is the U.S. government's official web portal to all federal, state and local government web resources and services.